カタログに戻る

ATLAS 5 CENTAUR DEB

運用中HEO
NORAD 44655·DEBRIS·🇺🇸 United States

打ち上げ Oct 17, 2018 から Cape Canaveral Space Force Station

Loading…

次のパス (今後24時間)

TLE

経年Source: Space-Track

元期: Aug 30, 2026, 09:00 UTC

1 44655U 18079R   26242.37547574 -.00000137  00000-0  00000-0 0  9999
2 44655  13.9264  13.5230 4735732 352.5422   2.2397  1.83835076 52853

AllMySatでATLAS 5 CENTAUR DEBをリアルタイム追跡

Download on the App Store